Track COSMOS 1174 now! 10-day predictions COSMOS 1174 is classified as:
1 11765U 80030A 21061.61726999 .00001468 00000-0 78864-4 0 9996 2 11765 66.0852 182.9331 0550998 212.3712 144.2456 14.40133602101743